Powrót do katalogu

STARLINK-35587

AktywnyŁącznośćVLEO
NORAD 66158·PAYLOAD·🇺🇸 United States

Wystrzelony Oct 25, 2025 z Cape Canaveral Space Force Station

Loading…

Następne Przeloty (najbliższe 24 godziny)

TLE

ŚwieżeSource: CelesTrak SupGP

Epoka: Sep 14, 2026, 20:46 UTC

1 66158C 25240N   26257.86576389  .00050552  00000+0  14941-2 0  2577
2 66158  53.1565 262.1605 0001202  83.8634 134.1184 15.34353183    11

Śledź STARLINK-35587 w czasie rzeczywistym z AllMySat

Download on the App Store